Погода в Когалыме

Погода в Когалыме : погода сейчас, прогноз погоды и архив. Всё, что Вы хотите узнать о погоде в Когалыме!

Хотите узнать прогноз погоды в Когалыме? Тогда Вам сюда: Погода в Когалыме

Поиск расширенной информации на нашем сайте:

Другие новости

Новости СМИ2

Главная страница сайта

Новости сайта

03.07.2017

Напоминаем, что на нашем специализированном сайте Метеоцентр.Азия вы можете получить высокодетализированные автоматические прогнозы погоды по пунктам России, СНГ и мира в авиационном формате (включающие направление и скорость ветра, видимость, явления погоды, количество и форму облачности, нижнюю и верхнюю границу облачности).


Погода в Когалыме - сегодня

Время (UTC), дата Ветер
(°,м/с) 
Видим.   Явления Облачность Т
(°С)
Тd
(°С)
f(%) Тe
(°С)
Pmin
(гПа)
dP
(гПа)
Po
(мм)
O2
(г/м3)
Тmin Tmax R s Состояние
почвы
09 18.09.17 240 (ЮЗ) 20000 м  {ливн. осадки}  9/9 540 м 
+9.9 +6.5 79 +9  1001  1.1  745  288           
12 18.09.17 250 (З) 10 км  слаб. ливневой дождь  8/5 1000 м кучево-дожд., средняя 
[Cb cap|Ac trans]
+8.6 +6 84 +8  1002.1  1.1  746  290           
15 18.09.17 260 (З) 20000 м  {ливн. осадки}  8/8 1110 м кучево-дожд. 
[Cb cap]
+8.1 +7 93 +9  1003.2  746  291    +10.1     
18 18.09.17 240 (ЮЗ) 20000 м  {ливн. осадки}  8/4 300 м средняя 
[St|Ac trans]
+6.6 +6.2 97 +6  1004.1  0.9  747  293           
21 18.09.17 300 (СЗ) 7000 м  слаб. ливневой дождь{туман}  10/6 180 м кучево-дожд., средняя 
[Cb cap|As op]
+6.6 +6.4 99 +6  1005.1  748  293           
00 19.09.17 320 (СЗ) 20000 м  в посл. час ливневой дождь{туман}  10/8 150 м кучево-дожд., средняя 
[Cb cap|As op]
+5.8 +5.3 97 +3  1007.2  2.1  749  295           
03 19.09.17 320 (СЗ) 2900 м  слаб. дождь{морось}  10/10 150 м 
[Frnb|Ns]
+5.8 +5.8 100 +4  1009  1.8  751  295  +5.6      влажная 
06 19.09.17 330 (СЗ) 6000 м  слаб. морось{дождь}  10/10 120 м 
[St]
+6 +5.8 99 +4  1011.4  2.4  752  296           
09 19.09.17 320 (СЗ) 20000 м  в посл. час морось  10/10 150 м 
[St]
+6.9 +6.2 95 +6  1013.8  2.3  754  295           
12 19.09.17 310 (СЗ) 20000 м  {ливн. осадки, морось}  10/6 270 м кучево-дожд., средняя 
[Cb cap|As op]
+6.8 +5.5 91 +6  1015.7  1.9  756  296           
15 19.09.17 300 (СЗ) 5000 м  дымка  10/10 120 м 
[St]
+6.2 +5.8 97 +5  1017.1  1.4  757  297    +7.3     
18 19.09.17 300 (СЗ) 5000 м  дымка  10/10 150 м 
[St]
+5.9 +5.2 95 +5  1017.4  0.3  757  298           
21 19.09.17 300 (СЗ) 20000 м  {морось}  10/10 100 м 
[St]
+5.6 +5.1 97 +5  1017.8  0.3  757  298           
00 20.09.17 300 (СЗ) 2000 м  в посл. час морось  10/10 60 м 
[St]
+5.4 +5.4 100 +5  1017.6  -0.1  757  298           
03 20.09.17 310 (СЗ) 0400 м  туман{морось}  ?/?  
+5.7 +5.7 100 +7  1017.5  -0.1  757  298  +5.2    0.3     
06 20.09.17 900 () 3500 м  слаб. морось{туман}  10/10 330 м 
[St]
+6.8 +5.9 94 +7  1017.6  0.1  757  297           
09 20.09.17 110 (В) 20000 м  {морось}  10/10 400 м 
[St]
+7.6 +5.6 87 +9  1017.4  -0.2  757  296           
12 20.09.17 060 (СВ) 20000 м  {морось}  9/9 900 м 
[Sc]
+8.1 +5.4 83 +8  1017.5  0.1  757  295           
15 20.09.17 030 (СВ) 20000 м    9/9 1110 м 
[Sc]
+7.1 +4.3 82 +7  1017.7  0.2  757  297    +8.2  0.0     
18 20.09.17 020 (С) 20000 м    8/5 1200 м средняя 
[Sc|Ac trans]
+6.3 +4.4 88 +6  1017.4  -0.3  757  297           
21 20.09.17 010 (С) 20000 м    8/3 1000 м средняя 
[Sc|Ac trans]
+4.4 +2.9 90 +4  1017.4  -0.1  757  300           
00 21.09.17 340 (С) 20000 м    8/0 средняя 
[Ac trans]
+4.5 +3 90 +3  1017.6  0.2  757  300           
03 21.09.17 340 (С) 20000 м    9/0 средняя 
[Ac trans]
+5.3 +3.1 86 +3  1018.3  0.7  757  299  +4.1        сухая 
06 21.09.17 350 (С) 20000 м    9/0 средняя 
[Ac trans]
+7.8 +4.1 77 +6  1018.4  0.2  758  296           
09 21.09.17 320 (СЗ) 20000 м    8/4 1000 м кучево-дожд., средняя 
[Cb cap|Ac trans]
+7.9 +1.8 65 +7  1018.5  0.1  758  296           
Время (UTC), дата Ветер
(°,м/с) 
Видим.   Явления Облачность Т
(°С)
Тd
(°С)
f(%) Тe
(°С)
Pmin
(гПа)
dP
(гПа)
Po
(мм)
O2
(г/м3)
Тmin Tmax R s Состояние
почвы

Для получения пояснительной информации подведите курсор к названию столбца.

ПОГОДА в Когалыме - архив

Всё, что Вы хотите узнать о погоде в Когалыме - удобно и подробно!

Выберите нужную дату (начиная с 1 января 2015* года) и нажмите кнопку "Найти".
Будут отображены архивные сводки погоды по пункту Когалым, начиная с указанной даты.


Отображать данные в формате CSV (для использования в таблицах Excel)


Внимание! Наш архив погоды предназначен исключительно для личного некоммерческого использования в познавательных целях. Если Вам необходимы официальные справки о состоянии погоды (для производственных, юридических, коммерческих и т.п. целей), обращайтесь в органы Росгидромета.

*Примечание: данная дата относится к архиву по метеостанциям СССР (Россия, СНГ, Балтия).
Архив по метеостанциям Зарубежной Европы и Азии (кроме Китая) хранится 10 дней, по другим регионам земного шара (Китай, Африка, Америка, Австралия, Океания) - 1 день.

Когалым - район местоположения метеостанции


Название, широта, долгота, высота метеостанции:
Когалым 62.2°ш. 74.5°д. 67 м над ур. моря [Российская Федерация]

Дополнительная информация

В oтличие oт бoльшинства пoгoдных сайтoв мы публикуем пoдрoбную метеoинфoрмацию в детальнoм прoфессиoнальнoм фoрмате.

Характеристики температуры и влажнoсти вoздуха измеряются на высoте 2 м в тени вдали oт зданий и деревьев.
Скoрoсть ветра измеряется на высoте 10 м (на урoвне рoста челoвека скoрoсть ветра ниже в 1.5-2 раза). Если метеoстанция нахoдится в гoрoде или в лесу, тo скoрoсть ветра занижена на 2-4 м/с пo сравнению с oткрытым местoм. Скoрoсть ветра над акватoриями крупных рек и oзёр, а также на вершинах хoлмoв на 2-5 м/с выше, чем в oбычных услoвиях.
Атмoсфернoе давление в разных тoчках местнoсти мoжет значительнo oтличаться oт давления на метеoстанции, в зависимoсти oт услoвий рельефа (при пoдъёме на 10 м давление пoнижается примернo на 1 мм рт.ст.).